FW7632 Weather Reports


Display with metric or nautical units.
time (UTC)temp
F
wind
direction
speed
MPH
gust
MPH
rain 1hr
in
rain 24hr
in
rain mn
in
humidity
%
barometer
mb
20260904133004 73 326 3.0 6.0 0.00 0.34 0.02 1 1012.2
20260904131559 71 338 2.0 5.0 0.00 0.34 0.02 1 1012.1
20260904130055 70 334 2.0 5.0 0.00 0.34 0.02 1 1012.4
20260904124551 69 276 2.0 4.0 0.00 0.34 0.02 1 1012.4
20260904123046 68 276 1.0 3.0 0.00 0.34 0.02 1 1012.4
20260904121542 67 355 1.0 4.0 0.00 0.34 0.02 1 1012.2
20260904120038 67 294 1.0 3.0 0.00 0.34 0.02 1 1012.2
20260904114538 67 284 0.0 4.0 0.00 0.34 0.02 1 1012.1
20260904113029 67 196 1.0 3.0 0.00 0.34 0.02 1 1012.1
20260904111528 67 273 0.0 4.0 0.00 0.34 0.02 1 1012.1
20260904110021 68 261 0.0 4.0 0.00 0.34 0.02 1 1011.9
20260904104515 68 245 1.0 5.0 0.00 0.34 0.02 1 1011.8
20260904103011 68 288 0.0 1.0 0.00 0.34 0.02 1 1011.6
20260904101506 68 288 0.0 4.0 0.00 0.34 0.02 1 1011.6
20260904100002 68 288 0.0 2.0 0.00 0.34 0.02 1 1011.5
20260904094603 68 288 0.0 2.0 0.00 0.34 0.02 1 1011.4
20260904093104 68 288 0.0 3.0 0.00 0.34 0.02 1 1011.3
20260904091549 68 288 0.0 2.0 0.01 0.34 0.02 1 1011.4
20260904090045 68 288 0.0 1.0 0.01 0.34 0.02 1 1011.2
20260904084540 69 288 0.0 1.0 0.01 0.34 0.02 1 1011.1
20260904083042 69 288 0.0 2.0 0.01 0.34 0.02 1 1011.0
20260904081531 69 287 0.0 2.0 0.00 0.33 0.01 1 1010.8
20260904080027 69 288 0.0 1.0 0.00 0.33 0.01 1 1010.5
20260904074525 69 288 0.0 2.0 0.00 0.33 0.01 1 1010.4
20260904073023 70 292 0.0 1.0 0.00 0.33 0.01 1 1010.2
20260904071516 70 289 0.0 1.0 0.00 0.33 0.01 1 1010.2
20260904070010 70 289 0.0 2.0 0.00 0.33 0.01 1 1010.4
20260904064505 70 289 0.0 2.0 0.00 0.33 0.01 1 1010.3
20260904063001 71 289 0.0 1.0 0.00 0.33 0.01 1 1010.3
20260904061557 71 289 0.0 0.0 0.00 0.33 0.01 1 1010.3
20260904060053 71 289 0.0 1.0 0.00 0.33 0.01 1 1010.4
20260904054551 71 292 0.0 1.0 0.00 0.33 0.01 1 1010.5
20260904053044 71 290 0.0 1.0 0.00 0.33 0.01 1 1010.7
20260904051540 72 288 0.0 2.0 0.01 0.39 0.01 1 1010.7
20260904050035 72 288 0.0 5.0 0.09 0.39 0.01 1 1010.8
20260904044532 72 17 0.0 1.0 0.26 0.39 0.01 1 1011.0
20260904043026 73 17 1.0 2.0 0.28 0.39 0.01 1 1011.1
20260904041524 73 45 2.0 4.0 0.31 0.53 0.38 1 1010.8
20260904040018 74 252 1.0 7.0 0.24 0.45 0.30 1 1011.2
20260904034518 74 246 0.0 2.0 0.06 0.27 0.12 1 1010.9
20260904033009 74 246 0.0 2.0 0.04 0.25 0.10 1 1010.6
20260904031505 74 246 0.0 1.0 0.01 0.45 0.07 1 1010.6
20260904030001 74 246 0.0 1.0 0.00 0.44 0.06 1 1010.7
20260904024558 74 246 0.0 1.0 0.00 0.44 0.06 1 1010.7
20260904023058 74 246 0.0 2.0 0.00 0.44 0.06 1 1010.5
20260904021547 74 246 0.0 1.0 0.00 0.78 0.06 1 1010.9
20260904020043 74 246 0.0 0.0 0.00 0.78 0.06 1 1011.0
20260904014553 74 246 1.0 2.0 0.00 0.78 0.06 1 1011.0
20260904013039 74 246 0.0 1.0 0.00 0.78 0.06 1 1011.2
20260904011534 75 246 0.0 1.0 0.00 0.78 0.06 1 1011.1
20260904010037 75 246 0.0 0.0 0.00 0.78 0.06 1 1011.2
20260904004522 76 246 0.0 1.0 0.00 0.78 0.06 1 1011.1
20260904003021 76 246 0.0 0.0 0.00 0.78 0.06 1 1010.9
20260904001515 77 246 0.0 1.0 0.00 0.78 0.06 1 1010.8
20260904000008 78 246 0.0 2.0 0.00 0.78 0.06 1 1010.8
20260903234503 79 246 0.0 0.0 0.00 0.78 0.06 1 1010.7
20260903233102 80 245 0.0 1.0 0.00 0.78 0.06 1 1010.7
20260903231556 81 245 0.0 1.0 0.00 0.78 0.06 1 1010.8
20260903230053 82 245 0.0 1.0 0.00 0.78 0.06 1 1010.8
20260903224607 82 254 0.0 1.0 0.00 0.78 0.06 8 1010.5
20260903223041 83 255 0.0 3.0 0.00 0.78 0.06 15 1010.4
20260903221537 84 229 1.0 4.0 0.00 0.78 0.06 22 1010.3
20260903220038 84 211 0.0 4.0 0.00 0.78 0.06 26 1010.1
20260903214537 84 273 0.0 3.0 0.00 0.78 0.06 28 1010.2
20260903213028 85 272 1.0 6.0 0.00 0.78 0.06 33 1010.2
20260903211519 87 265 2.0 8.0 0.00 0.78 0.06 35 1010.4
20260903210015 87 277 2.0 5.0 0.00 0.78 0.06 34 1010.5
20260903204512 86 271 2.0 10.0 0.00 0.78 0.06 30 1010.6
20260903203005 85 340 3.0 7.0 0.00 0.78 0.06 29 1010.7
20260903201502 85 254 2.0 4.0 0.00 0.78 0.06 30 1011.0
20260903200100 86 306 3.0 11.0 0.00 0.78 0.06 34 1010.9
20260903194554 87 212 4.0 11.0 0.00 0.78 0.06 34 1010.8
20260903193049 86 262 2.0 10.0 0.00 0.78 0.06 33 1010.9
20260903191545 85 265 1.0 7.0 0.00 0.78 0.06 26 1011.1
20260903190040 84 245 3.0 9.0 0.00 0.78 0.06 25 1011.4
20260903184536 85 283 3.0 8.0 0.00 0.78 0.06 30 1011.7
20260903183031 87 210 3.0 9.0 0.00 0.78 0.06 32 1011.7
20260903181528 88 190 1.0 6.0 0.00 0.78 0.06 34 1011.8
20260903180026 88 286 0.0 7.0 0.00 0.78 0.06 32 1011.9
20260903174518 87 257 1.0 9.0 0.00 0.78 0.06 30 1011.9
20260903173013 88 196 1.0 6.0 0.00 0.78 0.06 30 1012.1
20260903171509 87 322 3.0 7.0 0.00 0.78 0.06 24 1012.1
20260903170005 85 264 1.0 6.0 0.00 0.78 0.06 12 1012.4
20260903164618 84 270 2.0 7.0 0.00 0.78 0.06 5 1012.4
20260903163058 82 327 2.0 5.0 0.00 0.78 0.06 1 1012.6
20260903161554 80 327 3.0 7.0 0.00 0.80 0.06 1 1012.8
20260903160047 79 286 1.0 7.0 0.00 0.80 0.06 1 1012.9
20260903154602 78 283 3.0 7.0 0.00 0.80 0.06 1 1013.2
20260903153038 77 298 2.0 7.0 0.00 0.80 0.06 1 1013.3
20260903151533 75 296 2.0 7.0 0.00 1.19 0.06 1 1013.4
20260903150029 74 360 1.0 4.0 0.00 1.19 0.06 1 1013.4
20260903144527 73 265 0.0 7.0 0.00 1.19 0.06 1 1013.4
20260903143020 73 241 1.0 8.0 0.00 1.19 0.06 1 1013.3
20260903141516 72 257 2.0 7.0 0.00 1.79 0.06 1 1013.3
20260903140017 71 217 0.0 11.0 0.00 1.79 0.06 1 1013.4
20260903134513 72 238 2.0 7.0 0.00 1.79 0.06 1 1013.3